Teller, AK

1:08 AM AKDT on April 24, 2018 (GMT -0800)
Teller

Weather History for PATE - February, 2014

Change the Weather History Date:

Saturday, February 8, 2014

  Actual Average (PATC) Record (PATC)
Temperature  
Mean Temperature 9 °F -  
Max Temperature 12 °F 6 °F 30 °F (2000)
Min Temperature 6 °F -2 °F -29 °F (1999)
Degree Days  
Heating Degree Days 56    
Moisture  
Dew Point 3 °F    
Average Humidity 74    
Maximum Humidity 84    
Minimum Humidity 62    
Precipitation  
Precipitation 0.00 in - - ()
Sea Level Pressure  
Sea Level Pressure 30.73 in    
Wind  
Wind Speed 9 mph (ESE)    
Max Wind Speed 17 mph    
Max Gust Speed -    
Averages and records for this station are not official NWS values.
T = Trace of Precipitation, MM = Missing Value Source: NWS Daily Summary

Daily Weather History Graph

Daily Weather History Graph

Search for Another Location

Airport or City:

Astronomy

Feb. 08, 2014 Rise Set
Actual Time 10:29 AM AKST 6:10 PM AKST
Civil Twilight 9:33 AM AKST 7:07 PM AKST
Nautical Twilight 8:33 AM AKST 8:06 PM AKST
Astronomical Twilight 7:36 AM AKST 9:04 PM AKST
Moon 12:26 PM AKST (2/8) 6:39 AM AKST (2/8)
Length of Visible Light 9h 33m
Length of Day
7h 40m
Waxing Gibbous, 70% of the Moon is Illuminated
Feb 8
Waxing Gibbous
Feb 14
Full
Feb 22
Last Quarter
Feb 28
New
Mar 8
First Quarter

Hourly Weather History & Observations

Time (AKST) Temp. Windchill Dew Point Humidity Pressure Visibility Wind Dir Wind Speed Gust Speed Precip Events Conditions
12:58 AM 6.1 °F -6.8 °F 1.9 °F 83% 30.78 in - SE 8.1 mph - N/A   Clear
1:58 AM 7.0 °F -5.7 °F 3.0 °F 84% 30.79 in - East 8.1 mph - N/A   Clear
2:58 AM 7.0 °F -4.5 °F 3.0 °F 84% 30.78 in - East 6.9 mph - N/A   Clear
3:58 AM 8.1 °F -4.3 °F 3.0 °F 80% 30.76 in - East 8.1 mph - N/A   Clear
4:58 AM 9.0 °F -2.2 °F 3.9 °F 80% 30.76 in - ENE 6.9 mph - N/A   Clear
5:58 AM 9.0 °F -4.2 °F 3.9 °F 80% 30.76 in - East 9.2 mph - N/A   Clear
6:58 AM 10.9 °F -3.4 °F 5.0 °F 77% 30.75 in - East 11.5 mph - N/A   Clear
7:58 AM 10.9 °F -4.7 °F 5.0 °F 77% 30.74 in - East 13.8 mph - N/A   Clear
8:58 AM 10.0 °F -7.6 °F 3.9 °F 76% 30.73 in - ESE 17.3 mph - N/A   Clear
9:58 AM 9.0 °F -7.9 °F 3.0 °F 77% 30.73 in - East 15.0 mph - N/A   Clear
10:58 AM 6.1 °F -8.7 °F 1.9 °F 83% 30.74 in - East 10.4 mph - N/A   Clear
11:58 AM 12.9 °F -3.9 °F 3.0 °F 65% 30.73 in - ESE 17.3 mph - N/A   Clear
12:58 PM 9.0 °F -4.2 °F 3.0 °F 77% 30.74 in - ESE 9.2 mph - N/A   Clear
1:58 PM 10.0 °F -1.9 °F 3.0 °F 73% 30.74 in - ESE 8.1 mph - N/A   Clear
2:58 PM 10.9 °F -1.8 °F 3.0 °F 70% 30.72 in - ESE 9.2 mph - N/A   Clear
3:58 PM 12.0 °F -2.0 °F 3.0 °F 67% 30.71 in - SE 11.5 mph - N/A   Clear
4:58 PM 10.9 °F -4.1 °F 3.0 °F 70% 30.70 in - SE 12.7 mph - N/A   Clear
5:58 PM 12.9 °F 0.7 °F 1.9 °F 62% 30.71 in - SE 9.2 mph - N/A   Clear
6:58 PM 10.9 °F -0.8 °F 1.9 °F 67% 30.71 in - SE 8.1 mph - N/A   Clear
7:58 PM 10.9 °F -2.6 °F 1.9 °F 67% 30.71 in - SSE 10.4 mph - N/A   Partly Cloudy
8:58 PM 12.9 °F -0.2 °F 1.9 °F 62% 30.69 in - SSE 10.4 mph - N/A   Scattered Clouds
9:58 PM 12.0 °F - 3.9 °F 70% 30.70 in - Calm Calm - N/A   Overcast
10:58 PM 12.0 °F - 1.9 °F 64% 30.69 in - Calm Calm - N/A   Scattered Clouds
11:58 PM 12.0 °F 4.1 °F 3.9 °F 70% 30.67 in - ESE 4.6 mph - N/A   Mostly Cloudy